TimeCST,TemperatureF,Dew PointF,Humidity,Sea Level PressureIn,VisibilityMPH,Wind Direction,Wind SpeedMPH,Gust SpeedMPH,PrecipitationIn,Events,Conditions,WindDirDegrees,DateUTC
12:47 AM,59.0,44.6,59,30.20,8.0,Calm,Calm,-,N/A,,Mostly Cloudy,0,2012-11-03 06:47:00
1:47 AM,57.2,46.4,67,30.20,8.0,Calm,Calm,-,N/A,,Mostly Cloudy,0,2012-11-03 07:47:00
3:50 AM,57.2,46.4,67,30.21,8.0,Calm,Calm,-,N/A,,Mostly Cloudy,0,2012-11-03 09:50:00
4:45 AM,57.2,44.6,63,30.20,8.0,Calm,Calm,-,N/A,,Mostly Cloudy,0,2012-11-03 10:45:00
6:47 AM,55.4,44.6,67,30.22,7.0,Calm,Calm,-,N/A,,Overcast,0,2012-11-03 12:47:00
7:45 AM,57.2,44.6,63,30.24,7.0,Calm,Calm,-,N/A,,Mostly Cloudy,0,2012-11-03 13:45:00
8:45 AM,62.6,51.8,68,29.96,5.0,Calm,Calm,-,N/A,,Overcast,0,2012-11-03 14:45:00
9:51 AM,64.4,53.6,68,30.29,5.0,Calm,Calm,-,N/A,,Overcast,0,2012-11-03 15:51:00
10:44 AM,66.2,53.6,64,30.29,4.0,Calm,Calm,-,N/A,,Overcast,0,2012-11-03 16:44:00
11:43 AM,71.6,51.8,50,29.92,4.0,Calm,Calm,-,N/A,,Overcast,0,2012-11-03 17:43:00
12:42 PM,75.2,50.0,41,30.21,5.0,Calm,Calm,-,N/A,,Overcast,0,2012-11-03 18:42:00
1:44 PM,73.4,46.4,38,30.21,5.0,Calm,Calm,-,N/A,,Overcast,0,2012-11-03 19:44:00
2:46 PM,71.6,46.4,41,29.81,7.0,Calm,Calm,-,N/A,,Overcast,0,2012-11-03 20:46:00
3:44 PM,71.6,46.4,41,30.18,7.0,Calm,Calm,-,N/A,,Overcast,0,2012-11-03 21:44:00
4:54 PM,69.8,46.4,43,30.18,7.0,Calm,Calm,-,N/A,,Overcast,0,2012-11-03 22:54:00
6:50 PM,66.2,46.4,49,30.21,7.0,Calm,Calm,-,N/A,,Overcast,0,2012-11-04 00:50:00
7:48 PM,64.4,46.4,52,30.21,7.0,NE,4.6,-,N/A,,Overcast,40,2012-11-04 01:48:00
8:44 PM,60.8,53.6,77,29.89,7.0,East,8.1,-,N/A,,Light Drizzle,80,2012-11-04 02:44:00
9:46 PM,57.2,57.2,100,30.27,7.0,SE,13.8,-,N/A,,Light Drizzle,140,2012-11-04 03:46:00
10:42 PM,57.2,57.2,100,30.27,7.0,SE,6.9,-,N/A,,Light Drizzle,140,2012-11-04 04:42:00